Weather Roundup
Issued by NWS Springfield, MO

Home | Current Version | Previous Version | Text Only | Print | Product List | Glossary On
Versions: 1 2 3 4 5 6 7 8 9 10 11 12 13 14 15 16 17 18 19 20 21 22 23 24 25 26 27 28 29 30 31 32 33 34 35 36 37 38 39 40 41 42 43 44 45 46 47 48 49 50
000
NZUS99 KSGF 260057
HRRSGF

HOURLY WEATHER
NATIONAL WEATHER SERVICE SPRINGFIELD MO
800 PM CDT MON SEP 25 2017

......SGF CWA......

CITY           SKY/WX    TMP DP  RH WIND       PRES   REMARKS
SPRINGFIELD    CLEAR     77  62  59 SE5       29.91R
JOPLIN         CLEAR     76  65  68 SE3       29.89R
WEST PLAINS    CLEAR     77  62  59 SE3       29.96R
ROLLA          CLEAR     76  60  57 S7        29.94R
BRANSON        PTCLDY    77  59  53 SE7       29.93S

......SURROUNDING SGF CWA......

CITY           SKY/WX    TMP DP  RH WIND       PRES   REMARKS
CHANUTE        CLOUDY    74  65  73 NW12      29.92R
PARSONS        CLOUDY    74  68  81 CALM      29.90R
COFFEYVILLE    CLOUDY    77  67  71 CALM      29.87R
EMPORIA        LGT RAIN  66  65  96 NW5       29.93S
HARRISON AR    CLEAR     77  62  59 S6        29.94R

......KANSAS AND MISSOURI......

CITY           SKY/WX    TMP DP  RH WIND       PRES   REMARKS
KANSAS CTY INT MOCLDY    71  66  84 N5        29.90R
SEDALIA        CLEAR     77  68  73 CALM      29.91R
ST JOSEPH      PTCLDY    68  66  93 N3        29.90R
ST LOUIS       NOT AVBL
WICHITA        RAIN      65  64  97 N9        29.94S
TOPEKA         HVY RAIN  67  66  97 NW13      29.93R FOG
OLATHE         PTCLDY    75  66  73 S5        29.89R

......TENNESSEE......

CITY           SKY/WX    TMP DP  RH WIND       PRES   REMARKS
MEMPHIS        NOT AVBL
NASHVILLE      CLEAR     82  66  58 CALM      29.96R

......ARKANSAS.......

CITY           SKY/WX    TMP DP  RH WIND       PRES   REMARKS
FAYETTEVILLE   CLEAR     70  67  90 CALM      29.92R
FT SMITH       CLEAR     81  66  60 CALM      29.86R
LITTLE ROCK    PTCLDY    78  68  71 SE3       29.90R

......OKLAHOMA.......

CITY           SKY/WX    TMP DP  RH WIND       PRES   REMARKS
TULSA          CLOUDY    80  66  62 SE5       29.85R
PONCA CITY     RAIN      68  65  90 N16       29.90F FOG
MCALESTER      MOCLDY    79  66  64 CALM      29.87R
OKLAHOMA CITY  LGT RAIN  70  68  93 W10       29.90R

......IOWA............

CITY           SKY/WX    TMP DP  RH WIND       PRES   REMARKS
DES MOINES     NOT AVBL
QUAD CITIES    CLOUDY    73  69  87 CALM      29.89S

......ILLINOIS........

CITY           SKY/WX    TMP DP  RH WIND       PRES   REMARKS
QUINCY         NOT AVBL
CHICAGO        PTCLDY    81  55  40 SE8       29.93R




USA.gov is the U.S. government's official web portal to all federal, state and local government web resources and services.